{"data":{"norad_id":55483,"intl_designator":"2023-015AL","name":"STARLINK-5692","alt_names":[],"object_type":"PAYLOAD","status":"ACTIVE","operator":null,"country":"US","launch_date":"2023-02-02","launch_site_code":"AFETR","launch_vehicle":null,"mission":null,"orbit_class":"UNKNOWN","rcs_meters":null,"size_class":null,"mass_kg":null,"dimensions":null,"purposes":["comms"],"wikipedia_slug":null,"has_3d_model":false,"image_url":null,"decayed_at":null,"tle_current":{"epoch":"2026-09-20T10:52:54.331968Z","epoch_age_seconds":104451,"freshness":"FRESH","line1":"1 55483U 23015AL  26263.45340662 -.00000098  00000+0  59818-5 0  9998","line2":"2 55483  43.0029 319.6620 0001290 267.1724  92.8980 15.27576311200380","mean_motion":15.27576311,"eccentricity":0.000129,"inclination_deg":43.0029,"raan_deg":319.662,"arg_perigee_deg":267.1724,"mean_anomaly_deg":92.898,"bstar":5.9818e-6,"rev_number":20038,"period_min":94.266976361877,"perigee_km":482.17504782364,"apogee_km":483.94523668634,"semimajor_km":6861.197142255,"source":"CELESTRAK","updated_at":"2026-09-21T09:00:33.235232Z"}}}